Location: Unspecified
(0.0000°N, 0.0000°E)
Time: 01:35:17
(UTC+00:00)

Traac - Pass Details

Date: 19 December 2025
Orbit: 951 x 1102 km, 32.4° (Epoch: 19 January)

Event Time Altitude Azimuth Distance (km) Brightness Sun altitude
Rises 18:25:30 0° 270° (W) 3,666 12.4 -6.5°
Reaches altitude 10° 18:29:09 10° 289° (WNW) 2,693 11.1 -7.3°
Maximum altitude 18:33:16 17° 329° (NNW) 2,181 9.9 -8.2°
Drops below altitude 10° 18:37:20 10° 9° (N) 2,659 10.0 -9.2°
Enters shadow 18:40:06 - 25° (NNE) 3,361 10.4 -9.8°
